Location: Unspecified
(0.0000°N, 0.0000°E)
Time: 22:51:42
(UTC+00:00)

Resurs 1-3 - Pass Details

Date: 08 March 2026
Orbit: 613 x 615 km, 97.7° (Epoch: 29 March)

Event Time Altitude Azimuth Distance (km) Brightness Sun altitude
Rises 17:52:20 0° 135° (SE) 2,879 6.6 4.6°
Reaches altitude 10° 17:55:34 10° 108° (ESE) 1,970 5.6 3.8°
Maximum altitude 17:57:41 14° 78° (ENE) 1,745 5.3 3.2°
Drops below altitude 10° 17:59:47 10° 49° (NE) 1,965 5.7 2.7°
Sets 18:02:59 0° 22° (NNE) 2,865 6.7 1.9°
